2018-014H

Last updated on Fri Nov 16 2018 00:08:36 GMT+0000 (Coordinated Universal Time)

1 43187U 18014H 18319.53628175 .00000071 00000-0 11343-4 0 9990 2 43187 97.7158 225.9758 0011347 12.3015 347.8482 14.96532290 42955

Satellite not in orbit

2018-014H